This is the latest recevied weather packets stored in our database for station/object IZ5MJO-13. If no packets are shown the sender has not sent any weather packets the latest 10 day(s).
| Time | Temp. | Humidity | Pressure | Rain* | Wind** | Luminosity | Snow |
|---|---|---|---|---|---|---|---|
| 1787717992 | 20.56° C | 68% | 1006.6 hPa | - | - | - | - |
| 1787717092 | 20.56° C | 66% | 1006.5 hPa | - | - | - | - |
| 1787716192 | 21.11° C | 68% | 1006.5 hPa | - | - | - | - |
| 1787715291 | 21.11° C | 67% | 1006.5 hPa | - | - | - | - |
| 1787714391 | 21.11° C | 66% | 1006.5 hPa | - | - | - | - |
| 1787713490 | 21.11° C | 67% | 1006.5 hPa | - | - | - | - |
| 1787712590 | 21.11° C | 66% | 1006.4 hPa | - | - | - | - |
| 1787711690 | 21.11° C | 68% | 1006.4 hPa | - | - | - | - |
| 1787710790 | 21.11° C | 66% | 1006.5 hPa | - | - | - | - |
| 1787709888 | 21.11° C | 65% | 1006.5 hPa | - | - | - | - |
| 1787708988 | 21.11° C | 66% | 1006.3 hPa | - | - | - | - |
| 1787708088 | 21.11° C | 63% | 1006.3 hPa | - | - | - | - |
| 1787707188 | 21.11° C | 66% | 1006 hPa | - | - | - | - |
| 1787706287 | 21.67° C | 65% | 1005.9 hPa | - | - | - | - |
| 1787705387 | 21.67° C | 65% | 1006 hPa | - | - | - | - |
| 1787704487 | 21.67° C | 65% | 1005.9 hPa | - | - | - | - |
| 1787703587 | 21.67° C | 62% | 1005.9 hPa | - | - | - | - |
| 1787702686 | 21.67° C | 64% | 1006 hPa | - | - | - | - |
| 1787701793 | 22.22° C | 63% | 1006 hPa | - | - | - | - |
| 1787701476 | 21.67° C | 64% | 1006 hPa | - | - | - | - |
| 1787701440 | 21.67° C | 64% | 1006 hPa | - | - | - | - |
| 1787701426 | 21.67° C | 65% | 1005.9 hPa | - | - | - | - |
| 1787701419 | 21.67° C | 65% | 1006.1 hPa | - | - | - | - |
| 1787701412 | 21.67° C | 62% | 1005.9 hPa | - | - | - | - |
| 1787701405 | 22.22° C | 62% | 1006.1 hPa | - | - | - | - |
* Rain since midnight (hover to see other rain measurements)
** Current wind speed in m/s (hover to see current wind gust speed)